TimeWIB,TemperatureF,Dew PointF,Humidity,Sea Level PressureIn,VisibilityMPH,Wind Direction,Wind SpeedMPH,Gust SpeedMPH,PrecipitationIn,Events,Conditions,WindDirDegrees,DateUTC
1:00 AM,79,78,94,29.79,3,WSW,3.5,,,,Mist,240,2013-01-08 18:00:00
4:00 AM,77,75,90,29.76,2,Calm,Calm,,,,Haze,,2013-01-08 21:00:00
5:30 AM,75.2,75.2,100,29.77,3.1,Calm,Calm,-,N/A,,Haze,0,2013-01-08 22:30:00
6:00 AM,77.0,75.2,94,29.77,2.5,Calm,Calm,-,N/A,,Haze,0,2013-01-08 23:00:00
6:30 AM,77.0,75.2,94,29.77,1.9,Calm,Calm,-,N/A,,Haze,0,2013-01-08 23:30:00
7:00 AM,77,75,92,29.80,1,Calm,Calm,,,,Mist,,2013-01-09 00:00:00
7:00 AM,77.0,75.2,94,29.80,1.2,Calm,Calm,-,N/A,,Partly Cloudy,0,2013-01-09 00:00:00
8:00 AM,80.6,77.0,89,29.80,6.2,WNW,6.9,-,N/A,,Mostly Cloudy,300,2013-01-09 01:00:00
9:00 AM,82.4,77.0,84,29.83,6.2,NW,6.9,-,N/A,,Mostly Cloudy,320,2013-01-09 02:00:00
10:00 AM,85,77,71,29.83,6,NW,9.2,,,,Partly Cloudy,310,2013-01-09 03:00:00
11:30 AM,87.8,77.0,70,29.80,6.2,WNW,11.5,-,N/A,,Mostly Cloudy,300,2013-01-09 04:30:00
12:00 PM,89.6,75.2,62,29.80,6.2,West,9.2,-,N/A,,Mostly Cloudy,270,2013-01-09 05:00:00
12:30 PM,87.8,75.2,66,29.80,6.2,WNW,9.2,-,N/A,,Mostly Cloudy,300,2013-01-09 05:30:00
1:00 PM,88,76,59,29.79,6,West,10.4,,,,Overcast,280,2013-01-09 06:00:00
1:00 PM,87.8,75.2,66,29.77,6.2,West,10.4,-,N/A,,Mostly Cloudy,280,2013-01-09 06:00:00
1:30 PM,89.6,75.2,62,29.77,6.2,West,11.5,-,N/A,,Mostly Cloudy,280,2013-01-09 06:30:00
2:00 PM,89.6,73.4,59,29.74,6.2,WNW,9.2,-,N/A,,Mostly Cloudy,300,2013-01-09 07:00:00
3:00 PM,87.8,73.4,62,29.74,6.2,West,6.9,-,N/A,,Mostly Cloudy,280,2013-01-09 08:00:00
3:30 PM,86.0,73.4,66,29.74,6.2,WSW,6.9,-,N/A,,Mostly Cloudy,240,2013-01-09 08:30:00
4:00 PM,82,73,69,29.75,6,SW,13.8,,,,Overcast,220,2013-01-09 09:00:00
4:00 PM,82.4,73.4,74,29.74,6.2,SW,11.5,-,N/A,,Scattered Clouds,230,2013-01-09 09:00:00
4:30 PM,80.6,73.4,79,29.77,6.2,SW,12.7,-,N/A,,Scattered Clouds,230,2013-01-09 09:30:00
5:00 PM,78.8,71.6,78,29.77,6.2,SW,11.5,-,N/A,,Scattered Clouds,230,2013-01-09 10:00:00
5:30 PM,78.8,71.6,78,29.77,6.2,WSW,9.2,-,N/A,,Scattered Clouds,240,2013-01-09 10:30:00
6:00 PM,78.8,71.6,78,29.77,6.2,SW,6.9,-,N/A,,Scattered Clouds,220,2013-01-09 11:00:00
6:30 PM,77.0,73.4,89,29.80,3.7,SW,4.6,-,N/A,,Scattered Clouds,230,2013-01-09 11:30:00
7:00 PM,78,74,84,29.82,6,NW,12.7,,,,Partly Cloudy,320,2013-01-09 12:00:00
7:00 PM,77.0,73.4,89,29.80,6.2,NW,8.1,-,N/A,,Partly Cloudy,310,2013-01-09 12:00:00
7:30 PM,75.2,71.6,89,29.83,3.7,WNW,8.1,-,N/A,Rain,Light Rain,290,2013-01-09 12:30:00
8:00 PM,75.2,73.4,94,29.83,3.7,SSE,3.5,-,N/A,,Scattered Clouds,160,2013-01-09 13:00:00
8:30 PM,75.2,73.4,94,29.83,4.3,Calm,Calm,-,N/A,,Scattered Clouds,0,2013-01-09 13:30:00
9:00 PM,75.2,71.6,89,29.86,4.3,WNW,3.5,-,N/A,,Scattered Clouds,300,2013-01-09 14:00:00
9:30 PM,75.2,73.4,94,29.86,4.3,Calm,Calm,-,N/A,,Scattered Clouds,0,2013-01-09 14:30:00
10:00 PM,75,72,89,29.87,1,Calm,Calm,,,,Haze,,2013-01-09 15:00:00
10:00 PM,75.2,73.4,94,29.86,1.2,Calm,Calm,-,N/A,,Haze,0,2013-01-09 15:00:00